User: anonymous   Login
Location: Azalea Creek
(37.1280°N, 119.2623°W)
Time: 06:40:47
(UTC+00:00)
Language:

STARLINK-53 - Orbit

View from above orbital plane
View from above orbital plane
View from above satellite
View from above satellite

Ground track
Ground track

The orbit data is extracted from the following two-line orbital elements,

1 44294C 19029BM  20152.93733460  .00893945  00000-0  34312-1 0  1522
2 44294  52.9971 284.3360 0001268  93.9006 147.3518 15.25040990    13
Epoch (UTC): 31 May 2020 22:29:45
Eccentricity: 0.0001268
inclination: 52.9971°
perigee height: 490 km
apogee height: 491 km
right ascension of ascending node: 284.3360°
argument of perigee: 93.9006°
revolutions per day: 15.25040990
mean anomaly at epoch: 147.3518°
orbit number at epoch: 1

The dashed part of the orbit path shows where the satellite is in the earth's shadow,  

DLR